Westfield, MA

3:29 PM EDT on May 22, 2018 (GMT -0400)
Barnes Municipal

Weather History for KBAF - April, 2014

Change the Weather History Date:

Thursday, April 24, 2014

  Actual Average Record
Temperature  
Mean Temperature 48 °F -  
Max Temperature 59 °F 60 °F 89 °F (2001)
Min Temperature 37 °F 36 °F 27 °F (2002)
Degree Days  
Heating Degree Days 17    
Moisture  
Dew Point 18 °F    
Average Humidity 30    
Maximum Humidity 53    
Minimum Humidity 19    
Precipitation  
Precipitation 0.00 in - - ()
Sea Level Pressure  
Sea Level Pressure 29.82 in    
Wind  
Wind Speed 17 mph (NNW)    
Max Wind Speed 29 mph    
Max Gust Speed 41 mph    
Visibility 10 miles    
Events      
Averages and records for this station are not official NWS values.
T = Trace of Precipitation, MM = Missing Value Source: NWS Daily Summary

Daily Weather History Graph

Daily Weather History Graph

Search for Another Location

Airport or City:

Astronomy

Apr. 24, 2014 Rise Set
Actual Time 5:56 AM EDT 7:42 PM EDT
Civil Twilight 5:26 AM EDT 8:12 PM EDT
Nautical Twilight 4:50 AM EDT 8:48 PM EDT
Astronomical Twilight 4:11 AM EDT 9:27 PM EDT
Moon 3:11 AM EDT (4/24) 2:49 PM EDT (4/24)
Length of Visible Light 14h 45m
Length of Day
13h 45m
Waning Crescent, 24% of the Moon is Illuminated
Apr 24
Waning Crescent
Apr 29
New
May 6
First Quarter
May 14
Full
May 21
Last Quarter

Hourly Weather History & Observations

Time (EDT) Temp. Windchill Dew Point Humidity Pressure Visibility Wind Dir Wind Speed Gust Speed Precip Events Conditions
12:53 AM 45.0 °F 37.9 °F 25.0 °F 46% 29.73 in 10.0 mi NNW 16.1 mph 25.3 mph N/A   Scattered Clouds
1:53 AM 45.0 °F 37.4 °F 21.9 °F 40% 29.73 in 10.0 mi NNW 18.4 mph 24.2 mph N/A   Clear
2:53 AM 44.1 °F 39.5 °F 19.9 °F 38% 29.74 in 10.0 mi NNW 8.1 mph - N/A   Clear
3:53 AM 41.0 °F 35.2 °F 25.0 °F 53% 29.74 in 10.0 mi NW 9.2 mph 19.6 mph N/A   Clear
4:53 AM 39.9 °F 33.9 °F 23.0 °F 51% 29.75 in 10.0 mi WNW 9.2 mph - N/A   Clear
5:53 AM 37.9 °F 32.7 °F 19.9 °F 48% 29.76 in 10.0 mi WNW 6.9 mph - N/A   Clear
6:53 AM 41.0 °F 32.2 °F 15.1 °F 35% 29.78 in 10.0 mi NNW 18.4 mph - N/A   Clear
7:53 AM 43.0 °F 33.3 °F 15.1 °F 32% 29.80 in 10.0 mi NW 25.3 mph 33.4 mph N/A   Clear
8:53 AM 45.0 °F 37.6 °F 15.1 °F 30% 29.80 in 10.0 mi NW 17.3 mph 25.3 mph N/A   Clear
9:53 AM 48.0 °F - 14.0 °F 26% 29.79 in 10.0 mi NNW 20.7 mph 28.8 mph N/A   Clear
10:53 AM 51.1 °F - 16.0 °F 25% 29.80 in 10.0 mi NW 28.8 mph 36.8 mph N/A   Clear
11:53 AM 53.1 °F - 18.0 °F 25% 29.81 in 10.0 mi NNW 23.0 mph 35.7 mph N/A   Clear
12:53 PM 55.9 °F - 19.0 °F 24% 29.80 in 10.0 mi NW 24.2 mph 33.4 mph N/A   Clear
1:53 PM 57.0 °F - 18.0 °F 22% 29.79 in 10.0 mi North 26.5 mph 34.5 mph N/A   Clear
2:53 PM 59.0 °F - 17.1 °F 20% 29.80 in 10.0 mi NNW 28.8 mph 41.4 mph N/A   Clear
3:53 PM 59.0 °F - 16.0 °F 19% 29.80 in 10.0 mi NNW 28.8 mph 40.3 mph N/A   Clear
4:53 PM 57.9 °F - 18.0 °F 21% 29.82 in 10.0 mi NNW 26.5 mph 35.7 mph N/A   Clear
5:53 PM 57.9 °F - 18.0 °F 21% 29.83 in 10.0 mi NNW 21.9 mph 29.9 mph N/A   Clear
6:53 PM 55.9 °F - 18.0 °F 23% 29.85 in 10.0 mi NW 18.4 mph 27.6 mph N/A   Clear
7:53 PM 54.0 °F - 18.0 °F 24% 29.89 in 10.0 mi NNW 15.0 mph - N/A   Clear
8:53 PM 52.0 °F - 15.1 °F 23% 29.94 in 10.0 mi NNW 12.7 mph - N/A   Clear
9:53 PM 51.1 °F - 14.0 °F 23% 29.96 in 10.0 mi NNW 16.1 mph - N/A   Clear
10:53 PM 48.9 °F - 16.0 °F 27% 29.97 in 10.0 mi North 10.4 mph - N/A   Clear
11:53 PM 46.9 °F - 16.0 °F 29% 29.98 in 10.0 mi NW 9.2 mph - N/A   Clear